When you browse on this site, cookies collect data to enhance your experience and personalize the content and advertising you see.
Visit our Privacy Policy to learn more. By continuing to use the site, you agree to this use of cookies and data.
  • In Hungary
  • List of Countries
  • For 7 days
  • Water Temperature
  • Satellite Maps
  • Weather Map
  • News
  • Weather Widgets
  • user-avatar
    Login

    Hourly Weather Sakkhar

    Today, 17 November, Saturday

    Time Temperature Precipitation Wind Pressure Humidity
    00:00 +25°C° 0 mm 1 mps 754 mmHg 24%
    01:00 +25°C° 0 mm 1 mps 754 mmHg 24%
    02:00 +24°C° 0 mm 1 mps 753 mmHg 25%
    03:00 +24°C° 0 mm 1 mps 753 mmHg 26%
    04:00 +23°C° 0 mm 1 mps 753 mmHg 26%
    05:00 +23°C° 0 mm 1 mps 753 mmHg 28%
    06:00 +24°C° 0 mm 1 mps 753 mmHg 27%
    07:00 +25°C° 0 mm 1 mps 754 mmHg 26%
    08:00 +26°C° 0 mm 1 mps 754 mmHg 25%
    09:00 +28°C° 0 mm 1 mps 754 mmHg 22%
    10:00 +30°C° 0 mm 1 mps 754 mmHg 19%
    11:00 +33°C° 0 mm 1 mps 754 mmHg 15%
    12:00 +34°C° 0 mm 1 mps 753 mmHg 14%
    13:00 +34°C° 0 mm 1 mps 752 mmHg 14%
    14:00 +36°C° 0 mm 2 mps 752 mmHg 13%
    15:00 +36°C° 0 mm 2 mps 751 mmHg 14%
    16:00 +34°C° 0 mm 1 mps 751 mmHg 14%
    17:00 +33°C° 0 mm 1 mps 751 mmHg 15%
    18:00 +32°C° 0 mm 2 mps 751 mmHg 16%
    19:00 +31°C° 0 mm 2 mps 751 mmHg 17%
    20:00 +30°C° 0 mm 2 mps 751 mmHg 18%
    21:00 +29°C° 0 mm 2 mps 752 mmHg 19%
    22:00 +29°C° 0 mm 2 mps 752 mmHg 19%
    23:00 +28°C° 0 mm 2 mps 752 mmHg 20%

    Tomorrow, 18 November, Sunday

    Time Temperature Precipitation Wind Pressure Humidity
    00:00 +27°C° 0 mm 2 mps 752 mmHg 21%
    01:00 +27°C° 0 mm 1 mps 752 mmHg 22%
    02:00 +26°C° 0 mm 1 mps 752 mmHg 23%
    03:00 +26°C° 0 mm 1 mps 752 mmHg 24%
    04:00 +25°C° 0 mm 1 mps 752 mmHg 25%
    05:00 +22°C° 0 mm 0 mps 752 mmHg 26%
    06:00 +23°C° 0 mm 0 mps 752 mmHg 25%
    07:00 +24°C° 0 mm 0 mps 753 mmHg 24%
    08:00 +27°C° 0 mm 1 mps 753 mmHg 23%
    09:00 +29°C° 0 mm 1 mps 753 mmHg 20%
    10:00 +32°C° 0 mm 2 mps 754 mmHg 18%
    11:00 +35°C° 0 mm 2 mps 754 mmHg 15%
    12:00 +36°C° 0 mm 2 mps 753 mmHg 14%
    13:00 +36°C° 0 mm 2 mps 752 mmHg 13%
    14:00 +37°C° 0 mm 3 mps 752 mmHg 12%
    15:00 +36°C° 0 mm 3 mps 752 mmHg 13%
    16:00 +36°C° 0 mm 2 mps 752 mmHg 13%
    17:00 +35°C° 0 mm 2 mps 751 mmHg 14%
    18:00 +33°C° 0 mm 3 mps 752 mmHg 15%
    19:00 +31°C° 0 mm 3 mps 753 mmHg 17%
    20:00 +29°C° 0 mm 4 mps 753 mmHg 19%
    21:00 +29°C° 0 mm 4 mps 753 mmHg 19%
    22:00 +28°C° 0 mm 4 mps 754 mmHg 20%
    23:00 +27°C° 0 mm 4 mps 754 mmHg 21%

    Day after tomorrow, 19 November, Monday

    Time Temperature Precipitation Wind Pressure Humidity
    00:00 +26°C° 0 mm 4 mps 754 mmHg 22%
    01:00 +26°C° 0 mm 4 mps 754 mmHg 22%
    02:00 +25°C° 0 mm 4 mps 754 mmHg 23%
    03:00 +25°C° 0 mm 4 mps 754 mmHg 23%
    04:00 +23°C° 0 mm 4 mps 754 mmHg 23%
    05:00 +23°C° 0 mm 4 mps 754 mmHg 23%
    06:00 +23°C° 0 mm 4 mps 755 mmHg 23%
    07:00 +23°C° 0 mm 4 mps 756 mmHg 22%
    08:00 +25°C° 0 mm 4 mps 756 mmHg 21%
    09:00 +27°C° 0 mm 4 mps 756 mmHg 19%
    10:00 +29°C° 0 mm 5 mps 757 mmHg 16%
    11:00 +33°C° 0 mm 5 mps 757 mmHg 14%
    12:00 +34°C° 0 mm 5 mps 757 mmHg 13%
    13:00 +35°C° 0 mm 4 mps 756 mmHg 13%
    14:00 +36°C° 0 mm 4 mps 755 mmHg 12%
    15:00 +35°C° 0 mm 3 mps 755 mmHg 13%
    16:00 +34°C° 0 mm 3 mps 755 mmHg 14%
    17:00 +32°C° 0 mm 2 mps 755 mmHg 14%
    18:00 +31°C° 0 mm 3 mps 756 mmHg 15%
    19:00 +30°C° 0 mm 3 mps 756 mmHg 16%
    20:00 +28°C° 0 mm 3 mps 757 mmHg 18%
    21:00 +27°C° 0 mm 3 mps 757 mmHg 18%
    22:00 +27°C° 0 mm 3 mps 757 mmHg 19%
    23:00 +26°C° 0 mm 3 mps 757 mmHg 20%

    20 November, Tuesday

    Time Temperature Precipitation Wind Pressure Humidity
    00:00 +26°C° 0 mm 3 mps 757 mmHg 20%
    01:00 +25°C° 0 mm 3 mps 757 mmHg 21%
    02:00 +24°C° 0 mm 3 mps 757 mmHg 22%
    03:00 +24°C° 0 mm 3 mps 757 mmHg 22%
    04:00 +22°C° 0 mm 3 mps 757 mmHg 22%
    05:00 +22°C° 0 mm 3 mps 757 mmHg 23%
    06:00 +22°C° 0 mm 3 mps 757 mmHg 22%
    07:00 +22°C° 0 mm 3 mps 758 mmHg 22%
    08:00 +24°C° 0 mm 3 mps 759 mmHg 21%
    09:00 +26°C° 0 mm 3 mps 759 mmHg 19%
    10:00 +29°C° 0 mm 3 mps 759 mmHg 16%
    11:00 +32°C° 0 mm 4 mps 759 mmHg 14%
    12:00 +33°C° 0 mm 3 mps 758 mmHg 13%
    13:00 +34°C° 0 mm 3 mps 757 mmHg 13%
    14:00 +35°C° 0 mm 2 mps 756 mmHg 12%
    15:00 +34°C° 0 mm 2 mps 756 mmHg 13%
    16:00 +32°C° 0 mm 2 mps 756 mmHg 14%
    17:00 +32°C° 0 mm 1 mps 755 mmHg 15%
    18:00 +30°C° 0 mm 1 mps 756 mmHg 16%
    19:00 +29°C° 0 mm 2 mps 756 mmHg 17%
    20:00 +27°C° 0 mm 2 mps 757 mmHg 18%
    21:00 +27°C° 0 mm 2 mps 757 mmHg 19%
    22:00 +26°C° 0 mm 1 mps 757 mmHg 20%
    23:00 +25°C° 0 mm 1 mps 758 mmHg 21%

    21 November, Wednesday

    Time Temperature Precipitation Wind Pressure Humidity
    00:00 +25°C° 0 mm 1 mps 757 mmHg 22%
    01:00 +24°C° 0 mm 1 mps 757 mmHg 22%
    02:00 +24°C° 0 mm 1 mps 757 mmHg 23%
    03:00 +24°C° 0 mm 1 mps 756 mmHg 23%
    04:00 +23°C° 0 mm 1 mps 756 mmHg 24%
    05:00 +23°C° 0 mm 1 mps 756 mmHg 24%
    06:00 +24°C° 0 mm 1 mps 756 mmHg 23%
    07:00 +25°C° 0 mm 1 mps 757 mmHg 23%
    08:00 +25°C° 0 mm 1 mps 757 mmHg 22%
    09:00 +28°C° 0 mm 2 mps 757 mmHg 19%
    10:00 +30°C° 0 mm 2 mps 757 mmHg 17%
    11:00 +32°C° 0 mm 2 mps 757 mmHg 15%
    12:00 +34°C° 0 mm 2 mps 756 mmHg 14%
    13:00 +34°C° 0 mm 2 mps 755 mmHg 13%
    14:00 +34°C° 0 mm 1 mps 754 mmHg 13%
    15:00 +33°C° 0 mm 1 mps 754 mmHg 14%
    16:00 +33°C° 0 mm 1 mps 754 mmHg 14%
    17:00 +32°C° 0 mm 1 mps 754 mmHg 15%
    18:00 +31°C° 0 mm 1 mps 755 mmHg 16%
    19:00 +29°C° 0 mm 1 mps 755 mmHg 17%
    20:00 +28°C° 0 mm 1 mps 756 mmHg 18%
    21:00 +28°C° 0 mm 2 mps 756 mmHg 18%
    22:00 +28°C° 0 mm 2 mps 756 mmHg 19%
    23:00 +27°C° 0 mm 2 mps 756 mmHg 19%

    22 November, Thursday

    Time Temperature Precipitation Wind Pressure Humidity
    00:00 +27°C° 0 mm 2 mps 756 mmHg 20%
    01:00 +26°C° 0 mm 2 mps 755 mmHg 20%
    02:00 +25°C° 0 mm 1 mps 755 mmHg 21%
    03:00 +25°C° 0 mm 1 mps 755 mmHg 21%
    04:00 +24°C° 0 mm 1 mps 755 mmHg 22%
    05:00 +24°C° 0 mm 1 mps 755 mmHg 22%
    06:00 +24°C° 0 mm 1 mps 755 mmHg 22%
    07:00 +25°C° 0 mm 1 mps 756 mmHg 21%
    08:00 +25°C° 0 mm 2 mps 756 mmHg 20%
    09:00 +28°C° 0 mm 2 mps 756 mmHg 18%
    10:00 +30°C° 0 mm 2 mps 757 mmHg 15%
    11:00 +32°C° 0 mm 2 mps 757 mmHg 13%
    12:00 +34°C° 0 mm 2 mps 756 mmHg 12%
    13:00 +35°C° 0 mm 3 mps 755 mmHg 12%
    14:00 +36°C° 0 mm 3 mps 754 mmHg 12%
    15:00 +35°C° 0 mm 2 mps 754 mmHg 13%
    16:00 +35°C° 0 mm 2 mps 754 mmHg 15%
    17:00 +34°C° 0 mm 2 mps 753 mmHg 16%
    18:00 +31°C° 0 mm 1 mps 754 mmHg 18%
    19:00 +30°C° 0 mm 1 mps 755 mmHg 19%
    20:00 +28°C° 0 mm 1 mps 755 mmHg 21%
    21:00 +28°C° 0 mm 2 mps 756 mmHg 21%
    22:00 +27°C° 0 mm 3 mps 756 mmHg 20%
    23:00 +27°C° 0 mm 4 mps 756 mmHg 20%
    Show more